Вернуться в каталог

DELTA 1 DEB

АктивенSSO
NORAD 7045·DEBRIS·🇺🇸 United States

Запущен Nov 6, 1973 с Vandenberg Space Force Base

Loading…

Ближайшие Пролёты (ближайшие 24 часа)

TLE

СвежийSource: Space-Track

Эпоха: Sep 13, 2026, 07:16 UTC

1  7045U 73086AM  26256.30344911 -.00000020  00000-0  23431-3 0  9995
2  7045 102.5955 276.1164 0076998 190.9899 182.4336 12.26156258358311

Отслеживайте DELTA 1 DEB в реальном времени с AllMySat

Download on the App Store